Terminal Aerodrome Forecast
Issued by NWS

Home | Current Version | Previous Version | Graphics & Text | Print | Product List | Glossary Off
Versions: 1 2 3 4 5 6 7 8 9 10 11 12 13 14 15 16 17

000
FTUS43 KDDC 201720
TAFHYS
TAF
KHYS 201720Z 2018/2118 32014G24KT P6SM BKN030
     FM202000 31014KT P6SM BKN050
     FM210100 31009KT P6SM FEW110=

USA.gov is the U.S. government's official web portal to all federal, state and local government web resources and services.